Weather History for Copper Harbor, MI

Change the Weather History Date:

Thursday, February 7, 2013

  Actual Average Record
Temperature  
Mean Temperature 20 °F -  
Max Temperature 23 °F 25 °F 42 °F (2002)
Min Temperature 17 °F 13 °F 0 °F (1997)
Degree Days  
Heating Degree Days 44    
Moisture  
Dew Point 15 °F    
Average Humidity 79    
Maximum Humidity 89    
Minimum Humidity 65    
Precipitation  
Precipitation 0.02 in - - ()
Sea Level Pressure  
Sea Level Pressure 30.28 in    
Wind  
Wind Speed 9 mph (ESE)    
Max Wind Speed 17 mph    
Max Gust Speed 28 mph    
Averages and records for this station are not official NWS values.
T = Trace of Precipitation, MM = Missing Value Source: NWS Daily Summary

Daily Weather History Graph

Daily Weather History Graph

Search for Another Location

Airport:

Trip Planner

Search our weather history database for the weather conditions in past years. The results will help you decide how hot, cold, wet, or windy it might be!

Date:

Astronomy

Feb. 07, 2013 Rise Set
Actual Time 8:08 AM EST 6:02 PM EST
Civil Twilight 7:36 AM EST 6:35 PM EST
Nautical Twilight 7:00 AM EST 7:11 PM EST
Astronomical Twilight 6:24 AM EST 7:47 PM EST
Moon 5:55 AM EST (2/7) 3:21 PM EST (2/7)
Length of Visible Light 10h 58m
Length of Day
9h 54m
Waning Crescent, 9% of the Moon is Illuminated
Feb 7
Waning Crescent
Feb 10
New
Feb 17
First Quarter
Feb 25
Full
Mar 4
Last Quarter

Hourly Weather History & Observations

Time (EST) Temp. Windchill Dew Point Humidity Pressure Visibility Wind Dir Wind Speed Gust Speed Precip Events Conditions
12:51 AM 18.0 °F 11.1 °F 15.1 °F 88% 30.24 in - WSW 4.6 mph - 0.01 in   Unknown
1:51 AM 18.0 °F - 15.1 °F 88% 30.24 in - Calm Calm - N/A   Unknown
2:51 AM 18.0 °F - 15.1 °F 88% 30.25 in - Calm Calm - N/A   Unknown
3:51 AM 21.0 °F 16.2 °F 17.1 °F 85% 30.24 in - South 3.5 mph - N/A   Unknown
4:51 AM 21.9 °F 13.4 °F 19.0 °F 89% 30.23 in - SSE 6.9 mph 16.1 mph N/A   Unknown
5:51 AM 21.9 °F 10.4 °F 19.0 °F 89% 30.24 in - SE 11.5 mph 21.9 mph N/A   Unknown
6:51 AM 21.9 °F 9.2 °F 19.0 °F 89% 30.24 in - ESE 13.8 mph 23.0 mph N/A   Unknown
7:51 AM 21.9 °F 8.2 °F 19.0 °F 89% 30.25 in - ESE 16.1 mph 24.2 mph N/A   Unknown
8:51 AM 21.9 °F 8.2 °F 19.0 °F 89% 30.26 in - ESE 16.1 mph 26.5 mph N/A   Unknown
9:51 AM 21.9 °F 9.8 °F 19.0 °F 89% 30.29 in - SE 12.7 mph 23.0 mph 0.01 in   Unknown
10:51 AM 21.9 °F 12.5 °F 16.0 °F 78% 30.30 in - SE 8.1 mph 20.7 mph N/A   Unknown
11:51 AM 23.0 °F 10.6 °F 16.0 °F 74% 30.30 in - ESE 13.8 mph 25.3 mph N/A   Unknown
12:51 PM 23.0 °F 12.4 °F 15.1 °F 72% 30.30 in - ESE 10.4 mph 19.6 mph N/A   Unknown
1:51 PM 21.9 °F 10.4 °F 15.1 °F 75% 30.30 in - ESE 11.5 mph 18.4 mph N/A   Unknown
2:51 PM 21.9 °F 11.0 °F 12.0 °F 66% 30.28 in - ESE 10.4 mph 17.3 mph N/A   Unknown
3:51 PM 21.9 °F 8.2 °F 15.1 °F 75% 30.28 in - East 16.1 mph 21.9 mph N/A   Unknown
4:51 PM 21.0 °F 9.3 °F 14.0 °F 74% 30.28 in - East 11.5 mph 23.0 mph N/A   Unknown
5:51 PM 19.9 °F 7.9 °F 12.9 °F 74% 30.30 in - East 11.5 mph 19.6 mph N/A   Unknown
6:51 PM 19.9 °F 7.3 °F 10.9 °F 68% 30.32 in - East 12.7 mph 23.0 mph N/A   Unknown
7:51 PM 19.9 °F 5.2 °F 10.0 °F 65% 30.32 in - East 17.3 mph - N/A   Unknown
8:51 PM 19.9 °F 5.7 °F 10.9 °F 68% 30.32 in - ENE 16.1 mph - N/A   Unknown
9:51 PM 19.0 °F 4.0 °F 10.0 °F 68% 30.32 in - East 17.3 mph 27.6 mph N/A   Unknown
10:51 PM 18.0 °F 2.6 °F 10.0 °F 71% 30.32 in - East 17.3 mph 23.0 mph N/A   Unknown
11:51 PM 17.1 °F 2.5 °F 10.0 °F 74% 30.33 in - East 15.0 mph 21.9 mph N/A   Unknown